(186192) = 2001 VD89

Discovered at Socorro on 2001-11-12 by LINEAR.

Orbit

Orbit type: Main Belt

Note: WebGL enabled browser required.

epoch2023-09-13.0
epoch JD2460200.5
perihelion date2019-06-26.08377
perihelion JD2458660.58377
argument of perihelion (°)22.05820
ascending node (°)357.74560
inclination (°)11.26767
eccentricity0.1906197
perihelion distance (AU)2.1896900
Tisserand w.r.t. Jupiter3.3
ΔV w.r.t. Earth (km/sec)9.9
semimajor axis (AU)2.7053906
mean anomaly (°)341.07978
mean daily motion (°/day)0.22149240
aphelion distance (AU)3.221
period (years)4.45
P-vector [x]0.94057359
P-vector [y]0.27501830
P-vector [z]0.19921412
Q-vector [x]-0.33950295
Q-vector [y]0.77480969
Q-vector [z]0.53329887
absolute magnitude16.02
phase slope0.15
uncertainty0
referenceMPEC 2024-A55
observations used550
oppositions12
arc length (days)8113
first opposition used2001
last opposition used2023
residual rms (arc-secs)0.70
perturbers coarse indicatorM-v
perturbers precise indicator003Ek
first observation date used2001-09-19.0
last observation date used2023-12-06.0
computer nameMPCLINUX
JD of orbit computation2456966.745949
perihelion JD uncertainty (days)7.4791E-05
argument of perihelion uncertainty (°)3.0919E-05
ascending node uncertainty (°)2.4039E-05
inclination uncertainty (°)7.5941E-06
eccentricity uncertainty 6.3398E-08
perihelion distance uncertainty (AU)1.7768E-07
Minimum Orbit Intersection Distances (in AU)
for orbit epoch: 2460200.5, reference: E2023-XD2
Mercury1.84918
Venus1.47192
Earth1.19448
Mars0.78877
Jupiter2.25896
Saturn6.3048
Uranus15.2897
Neptune27.4757

Observations

558 total observations over interval: 2001 09 19.45828 – 2023 12 06.176149
These data are available for download (format description).

Date (UT) J2000 RA J2000 Dec Magn Location Ref
2001 09 19.45828 02 41 20.64 +24 13 31.4 19.8   644 – Palomar Mountain/NEAT MPS 44847
2001 09 19.48063 02 41 20.38 +24 13 42.3 19.9   644 – Palomar Mountain/NEAT MPS 44847
2001 09 19.50185 02 41 20.14 +24 13 52.5 20.1   644 – Palomar Mountain/NEAT MPS 44847
2001 09 22.31760 02 40 46.02 +24 35 48.6 19.9 R 699 – Lowell Observatory-LONEOS MPS 44847
2001 09 22.34726 02 40 45.56 +24 36 04.0   699 – Lowell Observatory-LONEOS MPS 44847
2001 09 22.36528 02 40 45.16 +24 36 11.0 19.4   704 – Lincoln Laboratory ETS, New Mexico MPS 44847
2001 09 22.37700 02 40 45.01 +24 36 16.7   699 – Lowell Observatory-LONEOS MPS 44847
2001 09 22.38021 02 40 44.88 +24 36 19.5 19.8   704 – Lincoln Laboratory ETS, New Mexico MPS 44847
2001 09 22.39451 02 40 44.71 +24 36 26.5 19.8   704 – Lincoln Laboratory ETS, New Mexico MPS 44847
2001 09 22.40679 02 40 44.46 +24 36 30.1   699 – Lowell Observatory-LONEOS MPS 44847
2001 09 23.34717 02 40 29.25 +24 43 36.6 19.8   704 – Lincoln Laboratory ETS, New Mexico MPS 44847
2001 09 23.37774 02 40 28.59 +24 43 50.4 19.7   704 – Lincoln Laboratory ETS, New Mexico MPS 44847
2001 09 23.39250 02 40 28.35 +24 43 57.5 19.7   704 – Lincoln Laboratory ETS, New Mexico MPS 44847
2001 10 13.48129 02 28 01.85 +26 41 09.1 19.4   644 – Palomar Mountain/NEAT MPS 44847
2001 10 13.50830 02 28 00.32 +26 41 14.8 19.1   644 – Palomar Mountain/NEAT MPS 44847
2001 10 13.53218 02 27 59.03 +26 41 20.2 19.7   644 – Palomar Mountain/NEAT MPS 44847
2001 10 18.24877 02 23 26.76 +26 57 07.7 19.1   704 – Lincoln Laboratory ETS, New Mexico MPS 44847
2001 10 18.26468 02 23 25.78 +26 57 10.3 19.1   704 – Lincoln Laboratory ETS, New Mexico MPS 44847
2001 10 18.28060 02 23 24.77 +26 57 12.7 19.4   704 – Lincoln Laboratory ETS, New Mexico MPS 44847
2001 10 18.29650 02 23 23.75 +26 57 15.2 19.4   704 – Lincoln Laboratory ETS, New Mexico MPS 44847
2001 10 18.31238 02 23 22.72 +26 57 18.3 19.7   704 – Lincoln Laboratory ETS, New Mexico MPS 44847
2001 10 27.20716 02 13 55.41 +27 13 05.6 18.2 R 699 – Lowell Observatory-LONEOS MPS 44847
2001 10 27.22359 02 13 54.38 +27 13 06.9   699 – Lowell Observatory-LONEOS MPS 44847
2001 10 27.23999 02 13 53.26 +27 13 08.1   699 – Lowell Observatory-LONEOS MPS 44847
2001 10 27.25645 02 13 52.27 +27 13 07.7   699 – Lowell Observatory-LONEOS MPS 44847
2001 11 11.16426 01 58 12.01 +27 03 00.9 18.3 R 699 – Lowell Observatory-LONEOS MPS 44847
2001 11 11.18789 01 58 10.66 +27 02 58.9   699 – Lowell Observatory-LONEOS MPS 44847
2001 11 11.21139 01 58 09.21 +27 02 55.5   699 – Lowell Observatory-LONEOS MPS 44847
2001 11 11.23481 01 58 07.89 +27 02 53.0   699 – Lowell Observatory-LONEOS MPS 44847
2001 11 11.33581 01 58 01.91 +27 02 41.0 18.5   644 – Palomar Mountain/NEAT MPS 44847
2001 11 11.35724 01 58 00.62 +27 02 38.7 18.5   644 – Palomar Mountain/NEAT MPS 44847
2001 11 11.37816 01 57 59.39 +27 02 35.6 18.6   644 – Palomar Mountain/NEAT MPS 44847
2001 11 12.22013 01 57 12.47 +27 00 56.0 18.5   704 – Lincoln Laboratory ETS, New Mexico MPS 42189
2001 11 12.23449 01 57 11.65 +27 00 54.4 18.8   704 – Lincoln Laboratory ETS, New Mexico MPS 42189
2001 11 12.24886 01 57 10.78 +27 00 52.9 18.8   704 – Lincoln Laboratory ETS, New Mexico MPS 42189
2001 11 12.26323 01 57 09.96 +27 00 51.0 19.0   704 – Lincoln Laboratory ETS, New Mexico MPS 42189
2001 11 12.27759 01 57 09.13 +27 00 49.5 18.9   704 – Lincoln Laboratory ETS, New Mexico MPS 42189
2001 11 18.13757 01 52 10.10 +26 47 11.5 19.0   704 – Lincoln Laboratory ETS, New Mexico MPS 42189
2001 11 18.15237 01 52 09.38 +26 47 09.2 19.3   704 – Lincoln Laboratory ETS, New Mexico MPS 42189
2001 11 18.16714 01 52 08.65 +26 47 07.3 19.1   704 – Lincoln Laboratory ETS, New Mexico MPS 42189
2001 11 18.18193 01 52 07.93 +26 47 04.6 19.6   704 – Lincoln Laboratory ETS, New Mexico MPS 42189
2001 11 18.19668 01 52 07.23 +26 47 02.7 19.4   704 – Lincoln Laboratory ETS, New Mexico MPS 42189
2001 12 07.26023 01 43 26.37 +25 57 03.2 19.5   644 – Palomar Mountain/NEAT MPS 44847
2001 12 07.29041 01 43 26.08 +25 56 58.8 19.4   644 – Palomar Mountain/NEAT MPS 44847
2001 12 07.32876 01 43 25.74 +25 56 53.2 19.7   644 – Palomar Mountain/NEAT MPS 44847
2003 03 11.20333 10 28 30.56 +15 29 33.1 21.3 V 291 – LPL/Spacewatch II MPS 138616
2003 03 11.21056 10 28 30.17 +15 29 33.5 21.7 V 291 – LPL/Spacewatch II MPS 138616
2003 03 11.21805 10 28 29.77 +15 29 34.1 21.3 V 291 – LPL/Spacewatch II MPS 138616
2005 07 26.39962 22 16 03.72 -23 59 30.3 19.5   644 – Palomar Mountain/NEAT MPS 138616
2005 07 26.42205 22 16 02.75 -23 59 33.5 19.4   644 – Palomar Mountain/NEAT MPS 138616
2005 07 26.44474 22 16 01.77 -23 59 36.2 20.1   644 – Palomar Mountain/NEAT MPS 138616
2005 08 22.29048 21 50 52.26 -24 32 58.7 18.3   644 – Palomar Mountain/NEAT MPS 139620
2005 08 22.31182 21 50 50.86 -24 32 58.4 18.5   644 – Palomar Mountain/NEAT MPS 139620
2005 08 22.33306 21 50 49.47 -24 32 57.5 18.6   644 – Palomar Mountain/NEAT MPS 139620
2005 08 28.47131 21 44 27.31 -24 26 08.5 18.8 V E12 – Siding Spring Survey MPS 140143
2005 08 28.47895 21 44 26.88 -24 26 07.8 18.9 V E12 – Siding Spring Survey MPS 140143
2005 08 28.48664 21 44 26.37 -24 26 07.5 19.1 V E12 – Siding Spring Survey MPS 140143
2005 08 28.49433 21 44 25.90 -24 26 06.4 18.9 V E12 – Siding Spring Survey MPS 140143
2005 09 08.55381 21 34 15.42 -23 56 07.2 19.1 V E12 – Siding Spring Survey MPS 141029
2005 09 08.56266 21 34 15.09 -23 56 05.3 18.9 V E12 – Siding Spring Survey MPS 141029
2005 09 08.57141 21 34 14.52 -23 56 03.3 19.6 V E12 – Siding Spring Survey MPS 141029
2005 09 08.58028 21 34 14.12 -23 56 01.8 18.8 V E12 – Siding Spring Survey MPS 141029
2005 11 03.07912 21 36 20.19 -17 09 32.9 20.3 V G96 – Mt. Lemmon Survey MPS 147351
2005 11 03.08457 21 36 20.48 -17 09 29.8 20.4 V G96 – Mt. Lemmon Survey MPS 147351
2005 11 03.09005 21 36 20.73 -17 09 26.5 20.1 V G96 – Mt. Lemmon Survey MPS 147351
2005 11 03.09554 21 36 20.98 -17 09 23.2 20.1 V G96 – Mt. Lemmon Survey MPS 147351
2008 03 11.37587 13 04 11.73 -10 37 18.5 20.6 V 691 – Steward Observatory, Kitt Peak-Spacewatch MPS 241992
2008 03 11.39358 13 04 10.90 -10 37 17.6 20.9 V 691 – Steward Observatory, Kitt Peak-Spacewatch MPS 241992
2008 03 11.40892 13 04 10.23 -10 37 16.7 20.7 V 691 – Steward Observatory, Kitt Peak-Spacewatch MPS 241992
2008 04 15.27245 12 34 11.71 -09 11 44.7 20.4 V G96 – Mt. Lemmon Survey MPS 247587
2008 04 15.27907 12 34 11.35 -09 11 43.5 20.0 V G96 – Mt. Lemmon Survey MPS 247587
2008 04 15.28568 12 34 11.02 -09 11 42.0 20.2 V G96 – Mt. Lemmon Survey MPS 247587
2008 04 15.29235 12 34 10.70 -09 11 41.1 20.4 V G96 – Mt. Lemmon Survey MPS 247587
2008 05 11.23391 12 17 32.85 -08 05 04.2 21.0 V G96 – Mt. Lemmon Survey MPS 249780
2008 05 11.24371 12 17 32.60 -08 05 03.6 21.2 V G96 – Mt. Lemmon Survey MPS 249780
2008 05 11.25365 12 17 32.38 -08 05 02.4 21.8 V G96 – Mt. Lemmon Survey MPS 249780
2008 05 11.26374 12 17 32.10 -08 05 01.6 20.8 V G96 – Mt. Lemmon Survey MPS 249780
2010 08 16.24693 03 18 29.07 +24 31 53.5   C51 – WISE MPS 346995
2010 08 16.37923 03 18 38.90 +24 33 18.1   C51 – WISE MPS 346995
2010 08 16.51141 03 18 48.82 +24 34 43.6   C51 – WISE MPS 346995
2010 08 16.51153 03 18 48.83 +24 34 43.8   C51 – WISE MPS 346995
2010 08 16.64371 03 18 58.77 +24 36 08.1   C51 – WISE MPS 346995
2010 08 16.77601 03 19 08.65 +24 37 33.0   C51 – WISE MPS 346995
2010 08 16.90832 03 19 18.54 +24 38 57.6   C51 – WISE MPS 346995
2010 08 16.97453 03 19 23.49 +24 39 40.3   C51 – WISE MPS 346995
2010 08 17.04062 03 19 28.49 +24 40 23.7   C51 – WISE MPS 346995
2010 08 17.10671 03 19 33.43 +24 41 06.5   C51 – WISE MPS 346995
2010 08 17.17293 03 19 38.26 +24 41 48.3   C51 – WISE MPS 346995
2010 08 17.23901 03 19 43.19 +24 42 30.1   C51 – WISE MPS 346995
2010 08 17.37132 03 19 52.89 +24 43 54.7   C51 – WISE MPS 346995
2010 08 17.50362 03 20 02.85 +24 45 19.5   C51 – WISE MPS 346995
2010 08 17.63593 03 20 12.65 +24 46 44.1   C51 – WISE MPS 346995
2010 08 17.76823 03 20 22.37 +24 48 08.2   C51 – WISE MPS 346995
2010 09 16.622715 03 48 17.554 +29 50 20.50 19.81 z F51 – Pan-STARRS 1, Haleakala MPS 365163
2010 09 16.632436 03 48 17.871 +29 50 26.06 19.79 z F51 – Pan-STARRS 1, Haleakala MPS 365163
